• In Kazakhstan
  • List of Countries
  • For 7 days
  • Water Temperature
  • Satellite Maps
  • Weather Map
  • News
  • Weather Widgets
  • user-avatar
    Login

    Hourly Weather Fier

    Today, 16 November, Friday

    Time Temperature Precipitation Wind Pressure Humidity
    00:00 +11°C° 0 mm 4 mps 764 mmHg 53%
    01:00 +11°C° 0 mm 4 mps 764 mmHg 53%
    02:00 +11°C° 0 mm 4 mps 764 mmHg 54%
    03:00 +10°C° 0 mm 4 mps 764 mmHg 56%
    04:00 +10°C° 0 mm 4 mps 764 mmHg 57%
    05:00 +10°C° 0 mm 4 mps 764 mmHg 59%
    06:00 +10°C° 0 mm 4 mps 764 mmHg 61%
    07:00 +9°C° 0 mm 5 mps 764 mmHg 61%
    08:00 +10°C° 0 mm 5 mps 764 mmHg 57%
    09:00 +13°C° 0 mm 5 mps 764 mmHg 53%
    10:00 +14°C° 0 mm 4 mps 764 mmHg 48%
    11:00 +14°C° 0.1 mm 4 mps 764 mmHg 48%
    12:00 +15°C° 0.1 mm 4 mps 763 mmHg 48%
    13:00 +16°C° 0 mm 3 mps 763 mmHg 47%
    14:00 +14°C° 0.5 mm 3 mps 763 mmHg 51%
    15:00 +14°C° 0.5 mm 3 mps 763 mmHg 55%
    16:00 +13°C° 0.5 mm 3 mps 763 mmHg 59%
    17:00 +12°C° 0.6 mm 3 mps 763 mmHg 61%
    18:00 +12°C° 0.6 mm 4 mps 763 mmHg 64%
    19:00 +11°C° 0.6 mm 4 mps 763 mmHg 67%
    20:00 +10°C° 0.7 mm 5 mps 763 mmHg 69%
    21:00 +9°C° 0.7 mm 5 mps 763 mmHg 70%
    22:00 +9°C° 0.7 mm 6 mps 763 mmHg 71%
    23:00 +9°C° 0.7 mm 5 mps 763 mmHg 72%

    Tomorrow, 17 November, Saturday

    Time Temperature Precipitation Wind Pressure Humidity
    00:00 +9°C° 0.7 mm 5 mps 763 mmHg 73%
    01:00 +8°C° 0.7 mm 5 mps 763 mmHg 74%
    02:00 +8°C° 0.4 mm 4 mps 763 mmHg 75%
    03:00 +8°C° 0.4 mm 4 mps 763 mmHg 75%
    04:00 +8°C° 0.4 mm 4 mps 763 mmHg 75%
    05:00 +8°C° 0.2 mm 4 mps 763 mmHg 75%
    06:00 +8°C° 0.2 mm 4 mps 763 mmHg 75%
    07:00 +8°C° 0.2 mm 4 mps 762 mmHg 74%
    08:00 +10°C° 0.2 mm 4 mps 763 mmHg 70%
    09:00 +10°C° 0.2 mm 5 mps 763 mmHg 66%
    10:00 +12°C° 0.2 mm 5 mps 763 mmHg 62%
    11:00 +12°C° 0.1 mm 5 mps 763 mmHg 60%
    12:00 +13°C° 0.1 mm 5 mps 762 mmHg 59%
    13:00 +13°C° 0.1 mm 5 mps 762 mmHg 57%
    14:00 +12°C° 0 mm 5 mps 762 mmHg 59%
    15:00 +12°C° 0 mm 5 mps 762 mmHg 61%
    16:00 +11°C° 0 mm 4 mps 762 mmHg 63%
    17:00 +10°C° 0 mm 4 mps 762 mmHg 65%
    18:00 +10°C° 0 mm 4 mps 762 mmHg 68%
    19:00 +8°C° 0 mm 4 mps 762 mmHg 70%
    20:00 +8°C° 0 mm 4 mps 762 mmHg 70%
    21:00 +8°C° 0 mm 4 mps 763 mmHg 70%
    22:00 +7°C° 0 mm 5 mps 763 mmHg 70%
    23:00 +8°C° 0 mm 5 mps 763 mmHg 70%

    Day after tomorrow, 18 November, Sunday

    Time Temperature Precipitation Wind Pressure Humidity
    00:00 +8°C° 0 mm 5 mps 763 mmHg 70%
    01:00 +8°C° 0 mm 5 mps 762 mmHg 70%
    02:00 +8°C° 0 mm 5 mps 762 mmHg 71%
    03:00 +7°C° 0 mm 5 mps 762 mmHg 71%
    04:00 +7°C° 0 mm 5 mps 762 mmHg 71%
    05:00 +8°C° 0.1 mm 4 mps 762 mmHg 72%
    06:00 +8°C° 0.1 mm 4 mps 762 mmHg 72%
    07:00 +8°C° 0.1 mm 4 mps 762 mmHg 72%
    08:00 +10°C° 0.2 mm 4 mps 762 mmHg 70%
    09:00 +11°C° 0.2 mm 4 mps 761 mmHg 68%
    10:00 +12°C° 0.2 mm 4 mps 761 mmHg 66%
    11:00 +12°C° 0.7 mm 4 mps 761 mmHg 68%
    12:00 +12°C° 0.7 mm 3 mps 760 mmHg 69%
    13:00 +11°C° 0.7 mm 3 mps 760 mmHg 71%
    14:00 +11°C° 0.8 mm 3 mps 760 mmHg 73%
    15:00 +11°C° 0.8 mm 3 mps 759 mmHg 76%
    16:00 +10°C° 0.8 mm 3 mps 759 mmHg 78%
    17:00 +10°C° 0.1 mm 3 mps 759 mmHg 78%
    18:00 +10°C° 0.1 mm 3 mps 759 mmHg 78%
    19:00 +10°C° 0.1 mm 3 mps 758 mmHg 78%
    20:00 +10°C° 0 mm 3 mps 758 mmHg 78%
    21:00 +10°C° 0 mm 3 mps 758 mmHg 78%
    22:00 +9°C° 0 mm 3 mps 758 mmHg 78%
    23:00 +9°C° 0 mm 3 mps 758 mmHg 78%

    19 November, Monday

    Time Temperature Precipitation Wind Pressure Humidity
    00:00 +9°C° 0 mm 2 mps 757 mmHg 78%
    01:00 +9°C° 0 mm 2 mps 757 mmHg 78%
    02:00 +9°C° 0 mm 2 mps 757 mmHg 79%
    03:00 +8°C° 0 mm 2 mps 757 mmHg 79%
    04:00 +8°C° 0 mm 2 mps 757 mmHg 79%
    05:00 +8°C° 0 mm 2 mps 757 mmHg 78%
    06:00 +8°C° 0 mm 2 mps 757 mmHg 78%
    07:00 +8°C° 0 mm 2 mps 757 mmHg 77%
    08:00 +10°C° 0 mm 2 mps 757 mmHg 72%
    09:00 +13°C° 0 mm 2 mps 757 mmHg 67%
    10:00 +15°C° 0 mm 2 mps 757 mmHg 62%
    11:00 +15°C° 0 mm 2 mps 756 mmHg 61%
    12:00 +16°C° 0 mm 2 mps 756 mmHg 61%
    13:00 +16°C° 0 mm 2 mps 756 mmHg 60%
    14:00 +15°C° 0.3 mm 2 mps 756 mmHg 65%
    15:00 +13°C° 0.3 mm 3 mps 756 mmHg 71%
    16:00 +13°C° 0.3 mm 3 mps 756 mmHg 77%
    17:00 +12°C° 0.8 mm 4 mps 756 mmHg 79%
    18:00 +12°C° 0.8 mm 4 mps 756 mmHg 81%
    19:00 +12°C° 0.8 mm 5 mps 755 mmHg 83%
    20:00 +11°C° 1.5 mm 6 mps 755 mmHg 83%
    21:00 +11°C° 1.5 mm 6 mps 755 mmHg 83%
    22:00 +11°C° 1.5 mm 7 mps 755 mmHg 84%
    23:00 +11°C° 2.1 mm 7 mps 755 mmHg 84%

    20 November, Tuesday

    Time Temperature Precipitation Wind Pressure Humidity
    00:00 +11°C° 2.1 mm 7 mps 754 mmHg 84%
    01:00 +11°C° 2.1 mm 7 mps 754 mmHg 85%
    02:00 +11°C° 2.8 mm 7 mps 753 mmHg 85%
    03:00 +11°C° 2.8 mm 7 mps 753 mmHg 85%
    04:00 +11°C° 2.8 mm 8 mps 753 mmHg 85%
    05:00 +11°C° 2.1 mm 8 mps 752 mmHg 85%
    06:00 +12°C° 2.1 mm 8 mps 752 mmHg 85%
    07:00 +12°C° 2.1 mm 8 mps 752 mmHg 85%
    08:00 +12°C° 2.3 mm 8 mps 752 mmHg 85%
    09:00 +12°C° 2.3 mm 8 mps 752 mmHg 85%
    10:00 +13°C° 2.3 mm 9 mps 752 mmHg 85%
    11:00 +13°C° 1.8 mm 9 mps 751 mmHg 84%
    12:00 +14°C° 1.8 mm 10 mps 750 mmHg 82%
    13:00 +16°C° 1.8 mm 10 mps 750 mmHg 81%
    14:00 +16°C° 1.5 mm 10 mps 749 mmHg 81%
    15:00 +16°C° 1.5 mm 10 mps 749 mmHg 81%
    16:00 +17°C° 1.5 mm 10 mps 749 mmHg 81%
    17:00 +16°C° 1.1 mm 9 mps 749 mmHg 84%
    18:00 +16°C° 1.1 mm 8 mps 749 mmHg 86%
    19:00 +15°C° 1.1 mm 7 mps 750 mmHg 88%
    20:00 +15°C° 0.8 mm 7 mps 750 mmHg 88%
    21:00 +15°C° 0.8 mm 7 mps 750 mmHg 89%
    22:00 +15°C° 0.8 mm 7 mps 751 mmHg 89%
    23:00 +15°C° 1 mm 7 mps 751 mmHg 89%

    21 November, Wednesday

    Time Temperature Precipitation Wind Pressure Humidity
    00:00 +15°C° 1 mm 7 mps 751 mmHg 88%
    01:00 +14°C° 1 mm 7 mps 751 mmHg 88%
    02:00 +14°C° 1.5 mm 7 mps 751 mmHg 89%
    03:00 +14°C° 1.5 mm 7 mps 751 mmHg 89%
    04:00 +14°C° 1.5 mm 6 mps 751 mmHg 90%
    05:00 +14°C° 2.2 mm 6 mps 751 mmHg 90%
    06:00 +14°C° 2.2 mm 5 mps 751 mmHg 91%
    07:00 +14°C° 2.2 mm 5 mps 751 mmHg 91%
    08:00 +14°C° 2 mm 4 mps 752 mmHg 91%
    09:00 +15°C° 2 mm 4 mps 752 mmHg 91%
    10:00 +16°C° 2 mm 3 mps 753 mmHg 91%
    11:00 +16°C° 1 mm 3 mps 753 mmHg 88%
    12:00 +17°C° 1 mm 3 mps 753 mmHg 84%
    13:00 +17°C° 1 mm 2 mps 753 mmHg 81%
    14:00 +17°C° 0.6 mm 3 mps 753 mmHg 81%
    15:00 +16°C° 0.6 mm 3 mps 754 mmHg 82%
    16:00 +16°C° 0.6 mm 3 mps 754 mmHg 83%
    17:00 +14°C° 0.4 mm 4 mps 755 mmHg 85%
    18:00 +14°C° 0.4 mm 5 mps 755 mmHg 86%
    19:00 +13°C° 0.4 mm 5 mps 756 mmHg 88%
    20:00 +13°C° 0.7 mm 5 mps 756 mmHg 89%
    21:00 +13°C° 0.7 mm 5 mps 757 mmHg 90%
    22:00 +13°C° 0.7 mm 5 mps 758 mmHg 92%
    23:00 +13°C° 0.2 mm 5 mps 758 mmHg 91%
    Show more